TimePDT,TemperatureF,Dew PointF,Humidity,Sea Level PressureIn,VisibilityMPH,Wind Direction,Wind SpeedMPH,Gust SpeedMPH,PrecipitationIn,Events,Conditions,WindDirDegrees,DateUTC
12:53 AM,61.0,54.0,78,29.97,10.0,NW,9.2,-,N/A,,Clear,310,2012-10-04 07:53:00
1:53 AM,60.1,54.0,80,29.98,10.0,NW,9.2,-,N/A,,Clear,310,2012-10-04 08:53:00
2:53 AM,59.0,54.0,83,29.98,10.0,NW,8.1,-,N/A,,Clear,310,2012-10-04 09:53:00
3:53 AM,59.0,54.0,83,29.98,9.0,NW,8.1,-,N/A,,Clear,310,2012-10-04 10:53:00
4:53 AM,57.9,54.0,87,30.00,10.0,WNW,8.1,-,N/A,,Clear,290,2012-10-04 11:53:00
5:53 AM,59.0,54.0,83,30.01,10.0,WNW,8.1,-,N/A,,Clear,300,2012-10-04 12:53:00
6:53 AM,57.0,53.1,87,30.04,10.0,West,3.5,-,N/A,,Clear,270,2012-10-04 13:53:00
7:53 AM,59.0,54.0,83,30.06,8.0,West,4.6,-,N/A,,Scattered Clouds,260,2012-10-04 14:53:00
8:53 AM,61.0,54.0,78,30.07,10.0,West,5.8,-,N/A,,Scattered Clouds,260,2012-10-04 15:53:00
9:53 AM,64.0,54.0,70,30.09,10.0,Variable,3.5,-,N/A,,Scattered Clouds,0,2012-10-04 16:53:00
10:53 AM,66.9,54.0,63,30.09,10.0,WNW,5.8,-,N/A,,Clear,300,2012-10-04 17:53:00
11:53 AM,71.1,54.0,55,30.09,10.0,West,9.2,-,N/A,,Clear,280,2012-10-04 18:53:00
12:53 PM,73.0,54.0,51,30.08,10.0,WNW,15.0,-,N/A,,Clear,300,2012-10-04 19:53:00
1:53 PM,75.9,53.1,45,30.06,10.0,WNW,12.7,-,N/A,,Clear,290,2012-10-04 20:53:00
2:53 PM,77.0,52.0,42,30.05,10.0,West,15.0,-,N/A,,Clear,280,2012-10-04 21:53:00
3:53 PM,75.0,53.1,46,30.05,10.0,WNW,15.0,-,N/A,,Clear,290,2012-10-04 22:53:00
4:53 PM,72.0,53.1,51,30.05,10.0,WNW,16.1,-,N/A,,Clear,290,2012-10-04 23:53:00
5:53 PM,66.9,53.1,61,30.06,10.0,West,15.0,-,N/A,,Clear,280,2012-10-05 00:53:00
6:53 PM,61.0,52.0,72,30.08,10.0,WNW,17.3,-,N/A,,Clear,290,2012-10-05 01:53:00
7:53 PM,59.0,52.0,78,30.09,10.0,West,15.0,-,N/A,,Clear,280,2012-10-05 02:53:00
8:53 PM,57.9,52.0,81,30.10,10.0,WNW,11.5,-,N/A,,Clear,290,2012-10-05 03:53:00
9:53 PM,57.0,52.0,83,30.11,10.0,WNW,8.1,-,N/A,,Clear,290,2012-10-05 04:53:00
10:53 PM,57.9,52.0,81,30.12,10.0,WNW,9.2,-,N/A,,Clear,290,2012-10-05 05:53:00
11:53 PM,57.9,52.0,81,30.12,10.0,WNW,13.8,-,N/A,,Clear,290,2012-10-05 06:53:00